Погода в Вьентьяне

Лаос     17°58′08″N   102°36′45″E
темп.,
°C
ветер,
м/с
пор.,
м/с
влажн.,
%
обл.,
%
осадки,
мм/ч
давл.,
гПа
погр.,
м
24 июня, чт
чт2401:00+24ююз2393100 3.3 100776
04:00+24ююз1194100 3.8 100619
07:00+24св2395100 5.7 100780
10:00+28юз127856 0.0 1007422
13:00+31юз3464100 0.8 10051221
16:00+32ююз2360100 0.8 10021118
19:00+26ю2386100 5.2 100452
22:00+26ююз1289100 0.1 100627
25 июня, пт
пт2501:00+24зюз1295100 4.4 100542
04:00+25зсз119099 2.9 100420
07:00+25св1192100 4.3 100663
10:00+27ссв1285100 3.0 1007236
13:00+27с2182100 3.1 1005563
16:00+27ссв1182100 0.0 1003335
19:00+25с229397 0.4 100463
22:00+24с1292100 0.2 100657
26 июня, сб
сб2601:00+24с129599 2.0 100541
04:00+23всв119898 4.4 100645
07:00+23всв1297100 5.9 100899
10:00+24вюв1296100 1.4 1009211
13:00+25всв119296 1.4 1007243
16:00+27ююв2383100 0.4 1006534
19:00+24ю1396100 1.3 100786
22:00+24юв009699 0.1 100917
27 июня, вс
вс2701:00+24юз019664 0.4 100816
04:00+23ссз0097100 3.4 100729
07:00+23в129898 8.1 100967
10:00+25юв1193100 3.5 1010169
13:00+25юв1190100 5.7 1008281
16:00+25в0093100 1.8 100638
19:00+24вюв009592 1.8 100713
22:00+24сз0195100 0.0 100814
28 июня, пн
пн2801:00+24сз1196100 0.0 100715
04:00+24зюз019799 0.0 100615
07:00+25зюз1193100 0.0 1008138
10:00+27з1380100 0.0 1008513
13:00+27зсз1280100 0.1 1006373
16:00+29зюз2574100 0.8 1004755
19:00+26зюз1287100 1.9 100518
22:00+25зюз1190100 0.1 100716